Location: Saint-Usage
(47.1052°N, 5.2587°E)
Time: 21:02:48
(UTC+02:00)

X-37B - Pass Details

Date: 29 September 2021
Orbit: 385 x 389 km, 45.0° (Epoch: 13 October)

Event Time Altitude Azimuth Distance (km) Brightness Sun altitude
Exits shadow 05:02:44 18° 99° (E) 1,016 3.2 -25.9°
Drops below altitude 10° 05:03:45 10° 94° (E) 1,414 4.2 -25.8°
Sets 05:05:51 0° 90° (E) 2,270 5.5 -25.5°
